Location: Oregon Trail
(41.1872°N, 102.0741°W)
Time: 14:33:12
(UTC+00:00)

Cosmos 1833 - Pass Details

Date: 19 November 2019
Orbit: 835 x 864 km, 70.9° (Epoch: 04 December)

Event Time Altitude Azimuth Distance (km) Brightness Sun altitude
Rises 12:48:05 0° 218° (SW) 3,370 7.1 -10.1°
Reaches altitude 10° 12:50:36 10° 224° (SW) 2,440 6.3 -9.6°
Maximum altitude 12:56:00 49° 299° (WNW) 1,067 4.4 -8.6°
Drops below altitude 10° 13:01:28 10° 14° (NNE) 2,458 6.6 -7.7°
Sets 13:04:00 0° 20° (NNE) 3,399 7.4 -7.2°
